sat.trackr.live / text

‹ back to catalog

STPSAT-5

NORAD 43762 · 2018-099E

PAYLOAD ACTIVE UNKNOWN

§ Identity

Operator
Country
US
Launch date
2018-12-03
Launch site
AFWTR
Launch vehicle
Mass (kg)
RCS (m²)

External: N2YO · Heavens-Above · Gunter

§ Orbital elements

Epoch: 2026-05-25T02:10:18.381792Z

Period
95.15 min
Inclination
97.4102°
Eccentricity
0.0004530
Mean motion
15.13458326 rev/d
Perigee alt
522.5 km
Apogee alt
528.8 km
Semi-major
6,903.8 km
B*
2.5793e-4
RAAN
195.5058°
Arg perigee
70.7745°
Mean anomaly
289.3977°
Rev number
40,937

§ Raw data

STPSAT-51 43762U 18099E   26145.09049053  .00004549  00000+0  25793-3 0  99972 43762  97.4102 195.5058 0004530  70.7745 289.3977 15.13458326409378

JSON: /api/v1/satellites/43762 · /tle

For live sub-satellite position, see the globe view (requires WebGL).

§ Visibility from observer

Set your observer location to see the next 7 days of passes ≥ 10°. The values pass through the URL so the page stays shareable.

No JS? Fill the form by hand. The geolocation button needs JavaScript.